Time,TemperatureF,DewpointF,PressureIn,WindDirection,WindDirectionDegrees,WindSpeedMPH,WindSpeedGustMPH,Humidity,HourlyPrecipIn,Conditions,Clouds,dailyrainin,SoftwareType,DateUTC
2013-04-18 00:02:00,37.0,36.0,29.81,NE,39,3.0,3.0,97,0.00,,,0.63,,2013-04-18 05:02:00,
2013-04-18 00:12:00,37.0,36.0,29.78,NNE,25,0.0,3.0,98,0.00,,,0.63,,2013-04-18 05:12:00,
2013-04-18 00:22:00,37.0,36.0,29.78,NNE,25,0.0,3.0,98,0.00,,,0.63,,2013-04-18 05:22:00,
2013-04-18 00:32:00,37.0,36.0,29.78,NNE,13,0.0,0.0,98,0.00,,,0.63,,2013-04-18 05:32:00,
2013-04-18 00:42:00,37.0,36.0,29.78,NNE,29,0.0,0.0,98,0.00,,,0.63,,2013-04-18 05:42:00,
2013-04-18 00:52:00,37.0,36.0,29.78,NNE,29,0.0,0.0,98,0.00,,,0.63,,2013-04-18 05:52:00,
2013-04-18 01:02:00,37.0,36.0,29.75,NNE,30,0.0,0.0,98,0.00,,,0.63,,2013-04-18 06:02:00,
2013-04-18 01:12:00,37.0,36.0,29.75,NNE,30,0.0,0.0,98,0.00,,,0.63,,2013-04-18 06:12:00,
2013-04-18 01:22:00,36.0,35.0,29.75,NE,37,0.0,0.0,98,0.00,,,0.63,,2013-04-18 06:22:00,
2013-04-18 01:32:00,36.0,35.0,29.75,NNE,24,0.0,0.0,98,0.00,,,0.63,,2013-04-18 06:32:00,
2013-04-18 01:42:00,36.0,35.0,29.75,North,7,0.0,0.0,98,0.00,,,0.63,,2013-04-18 06:42:00,
2013-04-18 01:52:00,36.0,35.0,29.75,North,7,0.0,0.0,98,0.00,,,0.63,,2013-04-18 06:52:00,
2013-04-18 02:02:00,36.0,35.0,29.72,NNE,14,0.0,0.0,98,0.00,,,0.63,,2013-04-18 07:02:00,
2013-04-18 02:12:00,36.0,35.0,29.72,North,357,0.0,0.0,98,0.00,,,0.63,,2013-04-18 07:12:00,
2013-04-18 02:22:00,36.0,35.0,29.72,North,357,0.0,0.0,98,0.00,,,0.63,,2013-04-18 07:22:00,
2013-04-18 02:32:00,36.0,35.0,29.72,NNE,31,0.0,0.0,98,0.00,,,0.63,,2013-04-18 07:32:00,
2013-04-18 02:42:00,36.0,35.0,29.72,NNE,31,0.0,0.0,98,0.00,,,0.63,,2013-04-18 07:42:00,
2013-04-18 02:52:00,36.0,35.0,29.72,NNE,31,0.0,0.0,98,0.00,,,0.63,,2013-04-18 07:52:00,
2013-04-18 03:02:00,36.0,35.0,29.75,North,5,0.0,0.0,98,0.00,,,0.63,,2013-04-18 08:02:00,
2013-04-18 03:12:00,36.0,35.0,29.75,NW,308,0.0,0.0,98,0.00,,,0.63,,2013-04-18 08:12:00,
2013-04-18 03:22:00,36.0,35.0,29.75,NW,308,0.0,0.0,98,0.00,,,0.63,,2013-04-18 08:22:00,
2013-04-18 03:32:00,36.0,35.0,29.75,North,357,0.0,0.0,98,0.00,,,0.63,,2013-04-18 08:32:00,
2013-04-18 03:42:00,36.0,35.0,29.72,North,7,0.0,0.0,98,0.00,,,0.63,,2013-04-18 08:42:00,
2013-04-18 03:52:00,36.0,35.0,29.72,North,7,0.0,0.0,98,0.00,,,0.63,,2013-04-18 08:52:00,
2013-04-18 04:02:00,36.0,35.0,29.72,North,357,0.0,0.0,98,0.00,,,0.63,,2013-04-18 09:02:00,
2013-04-18 04:12:00,35.0,34.0,29.72,North,2,0.0,0.0,98,0.00,,,0.63,,2013-04-18 09:12:00,
2013-04-18 04:22:00,35.0,34.0,29.72,North,2,0.0,0.0,98,0.00,,,0.63,,2013-04-18 09:22:00,
2013-04-18 04:33:00,35.0,34.0,29.69,North,3,0.0,0.0,98,0.00,,,0.63,,2013-04-18 09:33:00,
2013-04-18 04:42:00,35.0,34.0,29.69,North,6,0.0,0.0,98,0.00,,,0.63,,2013-04-18 09:42:00,
2013-04-18 04:53:00,35.0,34.0,29.69,North,6,0.0,0.0,98,0.00,,,0.63,,2013-04-18 09:53:00,
2013-04-18 05:03:00,35.0,34.0,29.69,North,0,0.0,0.0,98,0.00,,,0.63,,2013-04-18 10:03:00,
2013-04-18 05:12:00,35.0,34.0,29.69,North,0,0.0,0.0,98,0.00,,,0.63,,2013-04-18 10:12:00,
2013-04-18 05:23:00,35.0,34.0,29.72,North,11,0.0,0.0,98,0.00,,,0.63,,2013-04-18 10:23:00,
2013-04-18 05:32:00,35.0,34.0,29.72,North,0,0.0,0.0,98,0.00,,,0.63,,2013-04-18 10:32:00,
2013-04-18 05:42:00,35.0,34.0,29.72,North,0,0.0,0.0,98,0.00,,,0.63,,2013-04-18 10:42:00,
2013-04-18 05:52:00,35.0,34.0,29.72,North,0,0.0,0.0,98,0.00,,,0.63,,2013-04-18 10:52:00,
2013-04-18 06:02:00,35.0,34.0,29.72,North,0,0.0,0.0,98,0.00,,,0.63,,2013-04-18 11:02:00,
2013-04-18 06:12:00,35.0,34.0,29.72,NNW,348,0.0,0.0,98,0.00,,,0.63,,2013-04-18 11:12:00,
2013-04-18 06:22:00,35.0,34.0,29.72,NNW,348,0.0,0.0,98,0.00,,,0.63,,2013-04-18 11:22:00,
2013-04-18 06:32:00,34.0,34.0,29.69,North,357,0.0,0.0,98,0.00,,,0.63,,2013-04-18 11:32:00,
2013-04-18 06:42:00,34.0,34.0,29.69,North,357,0.0,0.0,98,0.00,,,0.63,,2013-04-18 11:42:00,
2013-04-18 06:52:00,34.0,34.0,29.72,North,9,0.0,0.0,98,0.00,,,0.63,,2013-04-18 11:52:00,
2013-04-18 07:02:00,34.0,34.0,29.66,NNE,25,5.0,5.0,98,0.00,,,0.63,,2013-04-18 12:02:00,
2013-04-18 07:12:00,34.0,34.0,29.66,NNE,25,5.0,5.0,98,0.00,,,0.63,,2013-04-18 12:12:00,
2013-04-18 07:22:00,34.0,34.0,29.60,NNE,21,0.0,3.0,98,0.00,,,0.63,,2013-04-18 12:22:00,
2013-04-18 07:32:00,34.0,34.0,29.63,North,9,0.0,3.0,98,0.00,,,0.63,,2013-04-18 12:32:00,
2013-04-18 07:42:00,34.0,34.0,29.63,North,9,0.0,3.0,98,0.00,,,0.63,,2013-04-18 12:42:00,
2013-04-18 07:52:00,34.0,34.0,29.63,NNE,27,0.0,4.0,98,0.00,,,0.63,,2013-04-18 12:52:00,
2013-04-18 08:02:00,35.0,34.0,29.63,NE,37,0.0,0.0,98,0.00,,,0.63,,2013-04-18 13:02:00,
2013-04-18 08:12:00,35.0,34.0,29.66,NE,35,0.0,0.0,98,0.00,,,0.63,,2013-04-18 13:12:00,
2013-04-18 08:22:00,35.0,34.0,29.66,NE,35,0.0,0.0,98,0.00,,,0.63,,2013-04-18 13:22:00,
2013-04-18 08:32:00,35.0,34.0,29.66,NE,35,0.0,0.0,98,0.00,,,0.63,,2013-04-18 13:32:00,
2013-04-18 08:42:00,35.0,34.0,29.66,NE,35,0.0,0.0,98,0.00,,,0.63,,2013-04-18 13:42:00,
2013-04-18 08:53:00,35.0,34.0,29.66,NE,35,0.0,0.0,98,0.00,,,0.63,,2013-04-18 13:53:00,
2013-04-18 09:02:00,36.0,35.0,29.63,NE,35,0.0,0.0,98,0.00,,,0.63,,2013-04-18 14:02:00,
2013-04-18 09:12:00,36.0,35.0,29.63,NNE,31,0.0,0.0,98,0.00,,,0.63,,2013-04-18 14:12:00,
2013-04-18 09:22:00,36.0,35.0,29.63,NNE,31,0.0,0.0,98,0.00,,,0.63,,2013-04-18 14:22:00,
2013-04-18 09:32:00,36.0,35.0,29.63,North,9,0.0,0.0,98,0.00,,,0.63,,2013-04-18 14:32:00,
2013-04-18 09:42:00,36.0,35.0,29.60,North,357,0.0,0.0,98,0.00,,,0.63,,2013-04-18 14:42:00,
2013-04-18 09:52:00,36.0,35.0,29.60,North,357,0.0,0.0,98,0.00,,,0.63,,2013-04-18 14:52:00,
2013-04-18 10:02:00,37.0,36.0,29.60,NE,47,0.0,0.0,97,0.00,,,0.63,,2013-04-18 15:02:00,
2013-04-18 10:12:00,37.0,36.0,29.60,NE,47,0.0,0.0,97,0.00,,,0.63,,2013-04-18 15:12:00,
2013-04-18 10:22:00,37.0,36.0,29.60,NE,38,0.0,3.0,95,0.00,,,0.63,,2013-04-18 15:22:00,
2013-04-18 10:33:00,37.0,35.0,29.57,NE,35,0.0,0.0,94,0.00,,,0.63,,2013-04-18 15:33:00,
2013-04-18 10:42:00,37.0,34.0,29.57,NNE,23,0.0,0.0,89,0.00,,,0.59,,2013-04-18 15:42:00,
2013-04-18 10:53:00,37.0,34.0,29.57,NNE,23,0.0,0.0,89,0.00,,,0.59,,2013-04-18 15:53:00,
2013-04-18 11:03:00,37.0,34.0,29.54,NNE,22,0.0,0.0,88,0.00,,,0.55,,2013-04-18 16:03:00,
2013-04-18 11:13:00,36.0,33.0,29.54,NNE,16,0.0,0.0,88,0.00,,,0.55,,2013-04-18 16:13:00,
2013-04-18 11:23:00,36.0,33.0,29.54,NNE,16,0.0,0.0,88,0.00,,,0.55,,2013-04-18 16:23:00,
2013-04-18 11:33:00,37.0,34.0,29.57,NNE,19,0.0,0.0,89,0.00,,,0.47,,2013-04-18 16:33:00,
2013-04-18 11:42:00,36.0,33.0,29.54,North,2,0.0,0.0,89,0.00,,,0.43,,2013-04-18 16:42:00,
2013-04-18 11:52:00,36.0,33.0,29.54,North,2,0.0,0.0,89,0.00,,,0.43,,2013-04-18 16:52:00,
2013-04-18 12:03:00,36.0,33.0,29.57,North,357,0.0,0.0,89,0.00,,,0.39,,2013-04-18 17:03:00,
2013-04-18 12:12:00,36.0,34.0,29.54,NNE,31,0.0,0.0,91,0.00,,,0.35,,2013-04-18 17:12:00,
2013-04-18 12:22:00,36.0,34.0,29.54,NNE,31,0.0,0.0,91,0.00,,,0.35,,2013-04-18 17:22:00,
2013-04-18 12:33:00,36.0,34.0,29.54,North,353,0.0,0.0,92,0.00,,,0.35,,2013-04-18 17:33:00,
2013-04-18 12:42:00,36.0,34.0,29.54,North,353,0.0,0.0,92,0.00,,,0.35,,2013-04-18 17:42:00,
2013-04-18 12:52:00,36.0,34.0,29.54,North,353,0.0,0.0,92,0.00,,,0.35,,2013-04-18 17:52:00,
2013-04-18 13:02:00,36.0,34.0,29.52,North,4,0.0,0.0,94,0.04,,,0.39,,2013-04-18 18:02:00,
2013-04-18 13:12:00,36.0,34.0,29.49,North,353,0.0,0.0,94,0.08,,,0.43,,2013-04-18 18:12:00,
2013-04-18 13:23:00,36.0,34.0,29.49,North,353,0.0,0.0,94,0.08,,,0.43,,2013-04-18 18:23:00,
2013-04-18 13:32:00,36.0,35.0,29.49,North,350,0.0,0.0,95,0.08,,,0.43,,2013-04-18 18:32:00,
2013-04-18 13:42:00,37.0,36.0,29.52,NW,322,0.0,0.0,95,0.08,,,0.43,,2013-04-18 18:42:00,
2013-04-18 13:52:00,37.0,36.0,29.52,NW,322,0.0,0.0,95,0.08,,,0.43,,2013-04-18 18:52:00,
2013-04-18 14:02:00,37.0,36.0,29.52,North,353,0.0,0.0,95,0.04,,,0.43,,2013-04-18 19:02:00,
2013-04-18 14:12:00,37.0,36.0,29.52,North,353,0.0,0.0,95,0.04,,,0.43,,2013-04-18 19:12:00,
2013-04-18 14:22:00,37.0,36.0,29.52,North,11,0.0,0.0,95,0.04,,,0.47,,2013-04-18 19:22:00,
2013-04-18 14:32:00,38.0,36.0,29.52,North,9,0.0,0.0,94,0.04,,,0.47,,2013-04-18 19:32:00,
2013-04-18 14:42:00,38.0,36.0,29.52,North,9,0.0,0.0,94,0.04,,,0.47,,2013-04-18 19:42:00,
2013-04-18 14:53:00,37.0,35.0,29.52,North,353,0.0,0.0,94,0.04,,,0.47,,2013-04-18 19:53:00,
2013-04-18 15:02:00,36.0,34.0,29.49,NW,324,0.0,0.0,92,0.04,,,0.47,,2013-04-18 20:02:00,
2013-04-18 15:12:00,36.0,34.0,29.49,NW,324,0.0,0.0,92,0.04,,,0.47,,2013-04-18 20:12:00,
2013-04-18 15:22:00,36.0,34.0,29.52,North,353,0.0,0.0,92,0.04,,,0.51,,2013-04-18 20:22:00,
2013-04-18 15:32:00,35.0,33.0,29.49,NW,324,0.0,0.0,92,0.04,,,0.51,,2013-04-18 20:32:00,
2013-04-18 15:42:00,35.0,33.0,29.49,North,353,0.0,0.0,92,0.04,,,0.51,,2013-04-18 20:42:00,
2013-04-18 15:52:00,35.0,33.0,29.49,North,353,0.0,0.0,92,0.04,,,0.51,,2013-04-18 20:52:00,
2013-04-18 16:02:00,35.0,33.0,29.49,North,357,0.0,0.0,93,0.04,,,0.51,,2013-04-18 21:02:00,
2013-04-18 16:12:00,35.0,33.0,29.46,North,357,0.0,0.0,93,0.00,,,0.51,,2013-04-18 21:12:00,
2013-04-18 16:22:00,35.0,33.0,29.46,North,357,0.0,0.0,93,0.00,,,0.51,,2013-04-18 21:22:00,
2013-04-18 16:32:00,35.0,33.0,29.46,NNW,339,0.0,0.0,93,0.00,,,0.51,,2013-04-18 21:32:00,
2013-04-18 16:43:00,36.0,34.0,29.46,NNW,346,0.0,0.0,93,0.00,,,0.51,,2013-04-18 21:43:00,
2013-04-18 16:53:00,36.0,34.0,29.46,NNW,346,0.0,0.0,93,0.00,,,0.51,,2013-04-18 21:53:00,
2013-04-18 17:02:00,35.0,33.0,29.46,North,349,0.0,0.0,93,0.00,,,0.51,,2013-04-18 22:02:00,
2013-04-18 17:13:00,35.0,33.0,29.46,NNW,332,0.0,0.0,92,0.00,,,0.51,,2013-04-18 22:13:00,
2013-04-18 17:22:00,35.0,33.0,29.46,NNW,332,0.0,0.0,92,0.00,,,0.51,,2013-04-18 22:22:00,
2013-04-18 17:32:00,35.0,33.0,29.46,WNW,290,0.0,0.0,92,0.00,,,0.51,,2013-04-18 22:32:00,
2013-04-18 17:42:00,35.0,33.0,29.46,WNW,290,0.0,0.0,92,0.00,,,0.51,,2013-04-18 22:42:00,
2013-04-18 17:52:00,35.0,33.0,29.46,WNW,290,0.0,0.0,92,0.00,,,0.51,,2013-04-18 22:52:00,
2013-04-18 18:04:00,34.0,32.0,29.49,NW,308,0.0,0.0,92,0.00,,,0.51,,2013-04-18 23:04:00,
2013-04-18 18:11:00,33.0,31.0,29.49,WNW,292,0.0,0.0,93,0.00,,,0.51,,2013-04-18 23:11:00,
2013-04-18 18:21:00,33.0,31.0,29.49,WNW,292,0.0,0.0,93,0.00,,,0.51,,2013-04-18 23:21:00,
2013-04-18 18:32:00,33.0,31.0,29.49,NNW,335,0.0,0.0,93,0.00,,,0.51,,2013-04-18 23:32:00,
2013-04-18 18:42:00,33.0,31.0,29.49,NW,305,0.0,0.0,94,0.00,,,0.51,,2013-04-18 23:42:00,
2013-04-18 18:52:00,33.0,31.0,29.49,NW,305,0.0,0.0,94,0.00,,,0.51,,2013-04-18 23:52:00,
2013-04-18 19:01:00,33.0,31.0,29.49,NNW,327,0.0,0.0,94,0.00,,,0.51,,2013-04-19 00:01:00,
2013-04-18 19:12:00,33.0,31.0,29.49,WNW,292,0.0,0.0,94,0.00,,,0.51,,2013-04-19 00:12:00,
2013-04-18 19:21:00,33.0,31.0,29.49,WNW,292,0.0,0.0,94,0.00,,,0.51,,2013-04-19 00:21:00,
2013-04-18 19:32:00,33.0,32.0,29.49,WNW,284,0.0,0.0,95,0.00,,,0.51,,2013-04-19 00:32:00,
2013-04-18 19:42:00,33.0,31.0,29.49,NW,309,0.0,0.0,94,0.00,,,0.51,,2013-04-19 00:42:00,
2013-04-18 19:52:00,33.0,31.0,29.49,NW,309,0.0,0.0,94,0.00,,,0.51,,2013-04-19 00:52:00,
2013-04-18 20:01:00,33.0,31.0,29.49,WNW,301,0.0,0.0,94,0.00,,,0.51,,2013-04-19 01:01:00,
2013-04-18 20:11:00,33.0,31.0,29.49,WNW,301,0.0,0.0,94,0.00,,,0.51,,2013-04-19 01:11:00,
2013-04-18 20:21:00,32.0,30.0,29.52,WNW,293,0.0,0.0,94,0.00,,,0.35,,2013-04-19 01:21:00,
2013-04-18 20:31:00,32.0,30.0,29.52,NW,315,0.0,0.0,93,0.00,,,0.24,,2013-04-19 01:31:00,
2013-04-18 20:42:00,32.0,30.0,29.52,NW,315,0.0,0.0,93,0.00,,,0.24,,2013-04-19 01:42:00,
2013-04-18 20:52:00,32.0,30.0,29.52,NW,310,0.0,0.0,93,0.00,,,0.24,,2013-04-19 01:52:00,
2013-04-18 21:01:00,32.0,30.0,29.52,North,353,0.0,0.0,93,0.00,,,0.20,,2013-04-19 02:01:00,
2013-04-18 21:11:00,32.0,30.0,29.52,North,353,0.0,0.0,93,0.00,,,0.20,,2013-04-19 02:11:00,
2013-04-18 21:21:00,32.0,30.0,29.52,NNW,333,0.0,0.0,93,0.00,,,0.16,,2013-04-19 02:21:00,
2013-04-18 21:32:00,32.0,30.0,29.52,West,280,0.0,0.0,92,0.00,,,0.16,,2013-04-19 02:32:00,
2013-04-18 21:42:00,32.0,30.0,29.54,WNW,282,0.0,0.0,91,0.00,,,0.16,,2013-04-19 02:42:00,
2013-04-18 21:52:00,32.0,30.0,29.54,WNW,282,0.0,0.0,91,0.00,,,0.16,,2013-04-19 02:52:00,
2013-04-18 22:01:00,32.0,29.0,29.54,WNW,288,0.0,0.0,90,0.00,,,0.16,,2013-04-19 03:01:00,
2013-04-18 22:11:00,32.0,29.0,29.54,WNW,288,0.0,0.0,90,0.00,,,0.16,,2013-04-19 03:11:00,
2013-04-18 22:21:00,32.0,29.0,29.54,WNW,300,0.0,0.0,89,0.00,,,0.16,,2013-04-19 03:21:00,
2013-04-18 22:32:00,32.0,29.0,29.54,NW,314,0.0,0.0,89,0.00,,,0.16,,2013-04-19 03:32:00,
2013-04-18 22:43:00,31.0,28.0,29.54,NW,321,0.0,0.0,87,0.00,,,0.16,,2013-04-19 03:43:00,
2013-04-18 22:53:00,31.0,28.0,29.54,NW,321,0.0,0.0,87,0.00,,,0.16,,2013-04-19 03:53:00,
2013-04-18 23:03:00,31.0,26.0,29.52,NNW,336,0.0,0.0,83,0.00,,,0.16,,2013-04-19 04:03:00,
2013-04-18 23:13:00,31.0,26.0,29.52,NNW,336,0.0,0.0,83,0.00,,,0.16,,2013-04-19 04:13:00,
2013-04-18 23:23:00,31.0,26.0,29.52,NNW,341,0.0,0.0,81,0.00,,,0.16,,2013-04-19 04:23:00,
2013-04-18 23:33:00,31.0,25.0,29.52,NW,324,0.0,0.0,79,0.00,,,0.16,,2013-04-19 04:33:00,
2013-04-18 23:43:00,32.0,26.0,29.52,NW,314,0.0,0.0,78,0.00,,,0.16,,2013-04-19 04:43:00,
2013-04-18 23:52:00,32.0,26.0,29.52,NW,314,0.0,0.0,78,0.00,,,0.16,,2013-04-19 04:52:00,